Flag for Portugal Weather past 2 weeks in Lisbon, Portugal

57 °F


Feels Like: 55 °F
Forecast: N/A
Wind: 12 mph from Northwest

Location: Lisbon Portela Airport

Current Time: Nov 26, 2015 at 11:21:25 PM

Latest Report: Nov 26, 2015 at 10:30 PM

Visibility: 10 mi

Pressure: 30.18 "Hg

Humidity: 82%

Dew point: 52 °F

Location of LisbonLocation

Historic Weather in Lisbon — Graph


Lisbon temperature yesterday

Maximum temperature yesterday: 63 °F (at 12:30 PM)
Minimum temperature yesterday: 52 °F (at 12:00 AM)
Average temperature yesterday: 58 °F

Past Weeks' High & Low Weather Summary

High70 °F (Nov 20, 2:30 PM)100% (Nov 16, 7:00 AM)30.48 "Hg (Nov 16, 7:00 AM)
Low39 °F (Nov 24, 7:30 AM)48% (Nov 24, 1:30 PM)30.04 "Hg (Nov 22, 4:30 PM)
Average58 °F79%30.31 "Hg
* Reported Nov 11 10:30 PM — Nov 26 10:00 PM, Lisbon, Weather by CustomWeather, © 2015

Note: Actual official high and low records may vary slightly from our data, if they occured in-between our weather recording intervals... More about our weather records


Lisbon weather history for previous 24 hours

Time TempWeatherWind HumidityBarometerVisibility
10:00 PM
Thu, Nov 26
57 °FClear.12 mph82%30.18 "Hg10 mi
9:30 PM57 °FClear.13 mph82%30.18 "Hg10 mi
9:00 PM57 °FClear.12 mph82%30.18 "Hg10 mi
8:30 PM57 °FPassing clouds.8 mph82%30.18 "HgN/A
8:00 PM57 °FPassing clouds.14 mph82%30.18 "HgN/A
7:30 PM57 °FPassing clouds.9 mph88%30.18 "HgN/A
6:30 PM59 °FPassing clouds.9 mph82%30.18 "HgN/A
6:00 PM59 °FPassing clouds.8 mph82%30.18 "HgN/A
5:30 PM59 °FPassing clouds.15 mph77%30.18 "HgN/A
5:00 PM61 °FPassing clouds.17 mph77%30.18 "HgN/A
4:30 PM61 °FPassing clouds.17 mph72%30.18 "HgN/A
4:00 PM63 °FPassing clouds.15 mph68%30.18 "HgN/A
3:30 PM63 °FPassing clouds.25 mph68%30.18 "HgN/A
3:00 PM63 °FPassing clouds.23 mph68%30.18 "HgN/A
2:30 PM64 °FPassing clouds.21 mph64%30.18 "HgN/A
2:00 PM64 °FPassing clouds.22 mph64%30.21 "HgN/A
1:30 PM64 °FPassing clouds.21 mph64%30.21 "HgN/A
1:00 PM64 °FPassing clouds.20 mph64%30.24 "HgN/A
12:30 PM64 °FPassing clouds.21 mph64%30.24 "HgN/A
12:00 PM64 °FPassing clouds.17 mph60%30.27 "HgN/A
11:30 AM63 °FPassing clouds.14 mph68%30.27 "HgN/A
11:00 AM63 °FPassing clouds.16 mph68%30.30 "HgN/A
10:30 AM61 °FPassing clouds.20 mph72%30.30 "HgN/A
10:00 AM59 °FPassing clouds.21 mph72%30.30 "HgN/A
9:30 AM59 °FPassing clouds.23 mph77%30.30 "HgN/A
9:00 AM57 °FPassing clouds.17 mph82%30.27 "HgN/A
8:30 AM57 °FPassing clouds.16 mph82%30.27 "HgN/A
8:00 AM55 °FPassing clouds.13 mph88%30.30 "HgN/A
7:30 AM55 °FPassing clouds.15 mph88%30.30 "HgN/A
7:00 AM55 °FPassing clouds.12 mph88%30.30 "HgN/A
6:30 AM55 °FPassing clouds.13 mph88%30.30 "HgN/A
6:00 AM55 °FClear.14 mph88%30.30 "Hg10 mi
5:30 AM55 °FPassing clouds.12 mph88%30.30 "HgN/A
5:00 AM55 °FPassing clouds.14 mph88%30.30 "HgN/A
4:30 AM55 °FPassing clouds.15 mph88%30.33 "HgN/A
3:30 AM55 °FPassing clouds.16 mph88%30.33 "HgN/A
3:00 AM55 °FPassing clouds.15 mph88%30.33 "HgN/A
2:30 AM55 °FPassing clouds.16 mph88%30.36 "HgN/A
2:00 AM55 °FPassing clouds.14 mph88%30.36 "HgN/A
1:30 AM57 °FPassing clouds.18 mph82%30.39 "HgN/A
1:00 AM55 °FPassing clouds.15 mph88%30.39 "HgN/A
12:30 AM57 °FPassing clouds.18 mph82%30.39 "HgN/A
12:00 AM57 °FPassing clouds.18 mph82%30.39 "HgN/A
11:30 PM
Wed, Nov 25
57 °FClear.16 mph82%30.39 "Hg10 mi
11:00 PM57 °FClear.16 mph82%30.39 "Hg10 mi
Weather by CustomWeather, © 2015

See weather overviewHow to use our weather pages